EW0413 Weather Reports


Display with metric or nautical units.
time (UTC)temp
F
wind
direction
speed
MPH
gust
MPH
rain 1hr
in
rain 24hr
in
rain mn
in
humidity
%
barometer
mb
20260509100056 48 165 0.0 2.0 0.00 0.08 0.00 96 1003.1
20260509094553 48 172 0.0 2.0 0.00 0.08 0.00 96 1003.0
20260509093034 48 174 0.0 2.0 0.00 0.08 0.00 95 1003.1
20260509091532 48 184 1.0 3.0 0.00 0.08 0.00 95 1003.0
20260509090013 48 233 0.0 5.0 0.00 0.08 0.00 95 1003.2
20260509084516 48 180 2.0 4.0 0.00 0.08 0.00 95 1003.0
20260509083053 48 167 1.0 3.0 0.00 0.08 0.00 95 1003.1
20260509081552 48 174 3.0 5.0 0.00 0.08 0.00 95 1003.2
20260509080035 48 150 0.0 1.0 0.00 0.08 0.00 95 1003.4
20260509074531 48 156 0.0 1.0 0.00 0.08 0.00 95 1003.2
20260509073013 48 155 0.0 2.0 0.00 0.08 0.00 95 1003.1
20260509071517 49 160 0.0 1.0 0.00 0.08 0.00 95 1003.1
20260509070050 49 151 0.0 1.0 0.00 0.08 0.00 94 1003.3
20260509064548 49 151 0.0 1.0 0.00 0.08 0.00 94 1003.5
20260509063037 49 153 0.0 0.0 0.00 0.08 0.00 94 1003.8
20260509061543 50 153 0.0 3.0 0.00 0.08 0.00 94 1003.7
20260509060029 51 150 0.0 2.0 0.00 0.08 0.00 93 1004.0
20260509054526 51 150 0.0 2.0 0.00 0.08 0.00 93 1004.1
20260509053029 51 162 2.0 3.0 0.00 0.08 0.00 93 1004.0
20260509051531 51 150 0.0 2.0 0.00 0.08 0.00 93 1004.2
20260509050027 51 153 0.0 1.0 0.00 0.08 0.00 93 1004.1
20260509044527 52 159 0.0 3.0 0.00 0.08 0.08 93 1004.2
20260509043007 52 156 0.0 1.0 0.00 0.08 0.08 92 1004.5
20260509041503 52 158 0.0 1.0 0.00 0.08 0.08 92 1004.5
20260509040047 53 158 0.0 2.0 0.00 0.08 0.08 91 1004.5
20260509034557 53 157 0.0 3.0 0.00 0.08 0.08 91 1004.6
20260509033028 54 155 1.0 3.0 0.00 0.08 0.08 91 1004.7
20260509031526 54 163 0.0 2.0 0.00 0.08 0.08 90 1004.9
20260509030008 54 161 0.0 1.0 0.00 0.08 0.08 90 1004.9
20260509024508 55 158 0.0 2.0 0.00 0.08 0.08 89 1004.9
20260509023057 55 167 0.0 4.0 0.00 0.08 0.08 88 1004.8
20260509021550 56 169 2.0 4.0 0.00 0.08 0.08 86 1004.8
20260509020031 56 163 1.0 3.0 0.00 0.08 0.08 85 1004.5
20260509014531 56 160 1.0 3.0 0.00 0.08 0.08 84 1004.5
20260509013033 57 142 0.0 3.0 0.00 0.08 0.08 83 1004.5
20260509011516 57 135 0.0 1.0 0.00 0.08 0.08 82 1004.5
20260509010015 58 142 0.0 5.0 0.00 0.08 0.08 81 1004.4
20260509004515 59 162 0.0 6.0 0.00 0.08 0.08 81 1004.4
20260509003017 60 170 1.0 4.0 0.00 0.08 0.08 80 1004.3
20260509001513 61 148 2.0 6.0 0.00 0.08 0.08 78 1004.3
20260509000012 62 195 3.0 8.0 0.00 0.08 0.08 77 1004.2
20260508234516 63 185 2.0 9.0 0.00 0.08 0.08 74 1004.3
20260508233010 65 180 3.0 6.0 0.00 0.08 0.08 70 1004.4
20260508231509 66 72 1.0 4.0 0.00 0.08 0.08 67 1004.4
20260508230059 66 77 0.0 4.0 0.00 0.08 0.08 68 1004.3
20260508224603 67 152 1.0 7.0 0.00 0.08 0.08 68 1004.3
20260508223034 67 356 0.0 4.0 0.00 0.08 0.08 69 1004.4
20260508221530 66 131 0.0 7.0 0.00 0.08 0.08 71 1004.4
20260508220011 66 69 1.0 7.0 0.00 0.08 0.08 70 1004.5
20260508214508 66 153 0.0 3.0 0.00 0.08 0.08 70 1004.7
20260508213007 65 151 1.0 6.0 0.00 0.08 0.08 72 1004.7
20260508211504 65 113 1.0 6.0 0.00 0.08 0.08 74 1004.7
20260508210044 64 148 1.0 6.0 0.00 0.08 0.08 76 1004.8
20260508204543 63 221 1.0 5.0 0.00 0.08 0.08 76 1004.8
20260508203024 64 126 1.0 7.0 0.00 0.08 0.08 75 1004.9
20260508201527 64 160 2.0 10.0 0.00 0.08 0.08 74 1005.2
20260508200002 63 121 0.0 6.0 0.00 0.08 0.08 75 1005.6
20260508194502 64 244 1.0 7.0 0.00 0.08 0.08 75 1005.7
20260508193123 64 143 1.0 5.0 0.00 0.08 0.08 73 1005.6
20260508191551 65 184 0.0 3.0 0.00 0.08 0.08 72 1005.8
20260508190046 64 187 0.0 6.0 0.00 0.08 0.08 72 1006.0
20260508184558 63 165 1.0 4.0 0.00 0.08 0.08 73 1006.1
20260508183042 63 212 0.0 4.0 0.00 0.08 0.08 71 1006.4
20260508181539 64 207 0.0 3.0 0.00 0.08 0.08 72 1006.5
20260508180037 63 268 0.0 3.0 0.00 0.08 0.08 70 1006.6
20260508174552 63 110 0.0 2.0 0.00 0.08 0.08 71 1006.7
20260508173016 63 151 0.0 3.0 0.00 0.08 0.08 71 1006.8
20260508171517 63 161 1.0 3.0 0.00 0.08 0.08 72 1007.3
20260508170055 63 183 2.0 7.0 0.00 0.08 0.08 72 1007.6
20260508164601 63 147 1.0 5.0 0.00 0.08 0.08 71 1007.7
20260508163036 63 153 1.0 6.0 0.00 0.08 0.08 74 1007.8
20260508161540 62 161 2.0 6.0 0.00 0.08 0.08 77 1008.1
20260508160010 60 176 2.0 6.0 0.00 0.08 0.08 76 1008.2
20260508154506 60 107 2.0 6.0 0.00 0.08 0.08 79 1008.4
20260508153046 59 152 1.0 6.0 0.00 0.08 0.08 78 1008.5
20260508151549 59 138 2.0 5.0 0.00 0.08 0.08 81 1008.5
20260508150027 58 193 2.0 6.0 0.00 0.08 0.08 83 1008.6
20260508144523 58 136 1.0 6.0 0.00 0.08 0.08 83 1008.7
20260508143002 57 177 1.0 5.0 0.00 0.08 0.08 85 1008.7
20260508141601 56 161 2.0 5.0 0.00 0.08 0.08 87 1008.8
20260508140041 55 178 2.0 5.0 0.00 0.08 0.08 87 1008.8
20260508134539 55 160 2.0 5.0 0.00 0.08 0.08 90 1008.8
20260508133018 54 152 1.0 5.0 0.00 0.08 0.08 91 1008.8
20260508131516 53 144 1.0 5.0 0.00 0.08 0.08 94 1009.0
20260508124552 51 99 0.0 2.0 0.05 0.08 0.08 95 1009.1
20260508123031 49 120 0.0 0.0 0.06 0.08 0.08 95 1009.3
20260508121533 49 120 0.0 1.0 0.08 0.08 0.08 95 1009.4
20260508120007 48 143 0.0 0.0 0.08 0.08 0.08 94 1009.2
20260508114506 48 167 0.0 1.0 0.03 0.03 0.03 93 1009.3
20260508113108 48 167 0.0 0.0 0.02 0.02 0.02 94 1009.0
20260508111554 47 167 0.0 0.0 0.00 0.00 0.00 93 1009.3
20260508110045 47 167 0.0 0.0 0.00 0.00 0.00 93 1008.9
20260508104526 46 167 0.0 1.0 0.00 0.00 0.00 93 1008.8
20260508103027 47 17 0.0 0.0 0.00 0.00 0.00 92 1008.7
20260508101511 47 316 0.0 0.0 0.00 0.00 0.00 91 1009.1